Weather Roundup
Issued by NWS

Home | Current Version | Previous Version | Text Only | Print | Product List | Glossary On
Versions: 1 2 3 4 5 6 7 8 9 10 11 12 13 14 15 16 17 18 19 20 21 22 23 24 25 26 27 28 29 30 31 32 33 34 35 36 37 38 39 40 41 42 43 44 45 46 47 48 49 50
000
NZUS93 KARX 191310
HRRWXR

CURRENT HOURLY OBSERVATIONS ACROSS
MUCH OF THE UPPER MISSISSIPPI VALLEY
NATIONAL WEATHER SERVICE LA CROSSE WI
800 AM CDT THU APR 19 2018


...SOUTHEAST MINNESOTA...


CITY           SKY/WX    TMP DP  RH WIND       PRES   REMARKS
ROCHESTER      FAIR      20  15  81 NW9       30.38R WCI   9
ROCHESTER/MAYO FAIR      26  18  72 CALM      30.40R
WINONA         FAIR      25  23  93 NW5       30.39R WCI  19
AUSTIN         FAIR      21  16  79 N7        30.39R WCI  13
ALBERT LEA     FAIR      23  14  68 N3        30.40R
DODGE CENTER   FAIR      27  16  63 NW8       30.39R WCI  18
PRESTON        FAIR      24  16  72 NW7       30.38R WCI  16
OWATONNA       FAIR      16  16 100 CALM      30.40R
FARIBAULT      NOT AVBL
$$

...ELSEWHERE IN MINNESOTA...


CITY           SKY/WX    TMP DP  RH WIND       PRES   REMARKS
MINNEAPOLIS    FAIR      33  18  53 N3        30.42R
INTNL FALLS    FAIR      30  23  75 CALM      30.39R
DULUTH         FAIR      32  16  51 NW3       30.38R
RED WING       FAIR      28  16  59 CALM      30.41R
REDWOOD FALLS  CLOUDY    32  19  58 CALM      30.43R
MANKATO        FAIR      27  18  69 NW3       30.43R
WORTHINGTON    CLOUDY    22  13  68 NW6       30.42R WCI  14
FAIRMONT       CLOUDY    23  15  71 N8        30.43R WCI  14
$$

...SOUTHWEST WISCONSIN...


CITY           SKY/WX    TMP DP  RH WIND       PRES   REMARKS
LA CROSSE      FAIR      28  24  85 N6        30.38R WCI  22
PRAIRIE DU CHI FAIR      28  26  91 CALM      30.37R
BOSCOBEL       FAIR      24  24 100 CALM      30.37R
LONE ROCK      FAIR      24  21  88 W8        30.35R WCI  15
PLATTEVILLE    FAIR      28  24  84 N8        30.33R WCI  20
FORT MC COY    FAIR      16  15  96 CALM      30.37R
CAMP DOUGLAS   MOSUNNY   23  21  93 W7        30.34R WCI  15
MAUSTON-NEW LI FAIR      26  20  78 W3        30.34R
VIROQUA        FAIR      28  22  81 N3        30.33R
WIS DELLS      FAIR      27  23  86 NW3       30.32R
$$

...ELSEWHERE IN WISCONSIN...


CITY           SKY/WX    TMP DP  RH WIND       PRES   REMARKS
MILWAUKEE      FAIR      35  23  61 NW12      30.25R WCI  27
MADISON        FAIR      28  21  75 N9        30.30R WCI  19
GREEN BAY      FAIR      34  19  54 N13       30.27R WCI  25
EAU CLAIRE     FAIR      30  17  58 NW6       30.38R WCI  24
BLACK RVR FLS  FAIR      24  24 100 CALM      30.36R
MEDFORD        FAIR      28  17  62 N6        30.30S WCI  22
WAUSAU         FAIR      32  18  56 N6        30.29R WCI  26
WIS RAPIDS     FAIR      30  15  53 N6        30.32R WCI  24
MARSHFIELD     FAIR      30  16  56 N8        30.29R WCI  22
RICE LAKE      FAIR      28  15  58 W6        30.41R WCI  21
$$

...NORTHEAST IOWA...


CITY           SKY/WX    TMP DP  RH WIND       PRES   REMARKS
WATERLOO       FAIR      26  21  81 NW6       30.37R WCI  19
DUBUQUE        FAIR      29  22  75 N8        30.33R WCI  21
DECORAH        FAIR      27  23  86 NW3       30.35R
MASON CITY     CLOUDY    19  16  88 CALM      30.40R
CHARLES CITY   FAIR      21  21 100 N9        30.38R WCI  11
OELWEIN        FAIR      25  25 100 N6        30.36R WCI  18
$$

...ELSEWHERE IN IOWA...


CITY           SKY/WX    TMP DP  RH WIND       PRES   REMARKS
DES MOINES     MOSUNNY   35  27  72 N6        30.39R WCI  30
IOWA CITY      FAIR      36  27  69 N8        30.35R WCI  30
FORT DODGE     CLOUDY    28  21  75 N7        30.41R WCI  21
MARSHALLTOWN   CLOUDY    30  25  81 N7        30.36R WCI  23
CEDAR RAPIDS   FAIR      33  27  78 N9        30.33R WCI  25
$$

...NORTHERN ILLINOIS...


CITY           SKY/WX    TMP DP  RH WIND       PRES   REMARKS
CHICAGO-OHARE  FAIR      34  26  72 N10       30.23R WCI  26
CHICAGO-MIDWAY FAIR      37  30  75 N12       30.23R WCI  29
MOLINE         FAIR      37  30  75 N6        30.32R WCI  32
ROCKFORD       FAIR      32  23  69 N13       30.30R WCI  22
PEORIA         FAIR      37  30  75 N12G18    30.30R WCI  29
$$

NOTE: "FAIR" INDICATES FEW OR NO CLOUDS BELOW 12,000 FEET WITH NO
SIGNIFICANT WEATHER AND/OR OBSTRUCTIONS TO VISIBILITY. WIND
SPEEDS ARE IN MILES-PER-HOUR.




USA.gov is the U.S. government's official web portal to all federal, state and local government web resources and services.